Home   Weather   Pulheim   Past weeks

Flag for Germany Past Weather in Pulheim, North Rhine-Westphalia, Germany — Yesterday and Last 2 Weeks

Now
55 °F

Partly cloudy.


Feels Like: 55 °F
Forecast: 52 / 70 °F
Wind: 5 mph from West

Location: Noervenich

Current Time: Sep 27, 2016 at 2:26:24 AM

Latest Report: Sep 27, 2016 at 1:20 AM


Visibility: N/A

Pressure: 30.24 "Hg

Humidity: 77%

Dew Point: 48 °F

Location of PulheimLocation

Past Weather in Pulheim — Graph

°F

Pulheim Temperature Yesterday

Maximum temperature yesterday: 68 °F (at 3:20 PM)
Minimum temperature yesterday: 50 °F (at 7:20 AM)
Average temperature yesterday: 59 °F

High & Low Weather Summary for the Past Weeks

 TemperatureHumidityPressure
High90 °F (Sep 13, 1:20 PM)100% (Sep 18, 5:20 AM)30.30 "Hg (Sep 18, 5:20 AM)
Low46 °F (Sep 22, 2:20 AM)27% (Sep 14, 4:20 PM)29.80 "Hg (Sep 15, 2:20 PM)
Average64 °F70%30.06 "Hg
* Reported Sep 12 12:20 AM — Sep 27 12:20 AM, Pulheim, Weather by CustomWeather, © 2016

Note: Actual official high and low records may vary slightly from our data, if they occured in-between our weather recording intervals... More about our weather records

Advertising

Pulheim Weather History for the Previous 24 Hours

Scroll right to see more
 ConditionsComfort  
Time TempWeatherWind HumidityBarometerVisibility
12:20 AM
Tue, Sep 27
55 °FPartly cloudy.6 mph77%30.24 "HgN/A
11:20 PM
Mon, Sep 26
55 °FPassing clouds.6 mph72%30.24 "HgN/A
10:20 PM55 °FPassing clouds.2 mph72%30.24 "HgN/A
9:20 PM59 °FPassing clouds.6 mph63%30.24 "HgN/A
8:20 PM59 °FPassing clouds.6 mph59%30.24 "HgN/A
7:20 PM61 °FPartly sunny.6 mph55%30.24 "HgN/A
6:20 PM64 °FPartly sunny.5 mph46%30.21 "HgN/A
5:20 PM66 °FPartly sunny.6 mph43%30.21 "HgN/A
4:20 PM68 °FPartly sunny.5 mph40%30.21 "HgN/A
3:20 PM68 °FScattered clouds.3 mph43%30.21 "HgN/A
2:20 PM66 °FScattered clouds.2 mph49%30.21 "HgN/A
1:20 PM64 °FScattered clouds.6 mph52%30.24 "HgN/A
12:20 PM63 °FScattered clouds.3 mph59%30.24 "HgN/A
11:20 AM61 °FScattered clouds.5 mph68%30.24 "HgN/A
10:20 AM59 °FPassing clouds.7 mph72%30.24 "HgN/A
9:20 AM55 °FPassing clouds.3 mph77%30.24 "HgN/A
8:20 AM52 °FPassing clouds.2 mph82%30.24 "HgN/A
7:20 AM50 °FPassing clouds.5 mph88%30.21 "HgN/A
6:20 AM54 °FPassing clouds.7 mph82%30.21 "HgN/A
5:20 AM54 °FPassing clouds.7 mph82%30.21 "HgN/A
4:20 AM55 °FPassing clouds.7 mph82%30.21 "HgN/A
3:20 AM59 °FPassing clouds.7 mph72%30.21 "HgN/A
2:20 AM59 °FPassing clouds.9 mph77%30.21 "HgN/A
Weather by CustomWeather, © 2016

See weather overviewHow to use our weather pages